{"data":{"norad_id":63499,"epoch":"2026-09-20T20:50:44.158560Z","epoch_age_seconds":123846,"freshness":"FRESH","line1":"1 63499U 25071G   26263.86856665  .00008746  00000+0  29315-3 0  9992","line2":"2 63499  53.1594 311.8491 0000913  77.8763 282.2340 15.31713491 82655","mean_motion":15.31713491,"eccentricity":9.13e-5,"inclination_deg":53.1594,"raan_deg":311.8491,"arg_perigee_deg":77.8763,"mean_anomaly_deg":282.234,"bstar":0.00029315,"rev_number":8265,"period_min":94.012359913333,"perigee_km":470.07448075387,"apogee_km":471.32507834981,"semimajor_km":6848.8367795518,"source":"CELESTRAK","updated_at":"2026-09-21T09:00:35.014249Z"}}